"Pseudo-MPEC" for P11HYsv

Created 2023 Sep 25 1:22:14 UT using Find_Orb

Click here for an explanation of pseudo-MPECs

 
 Astrometry: 
     P11HYsv* C2023 08 19q;_oh\IYO_)76jc=Q#x.4lbPdv00]?[RXPA;TD9Astrometry.MPF51
     P11HYsv  C2023 08 19x=m;HKm09:rC$I-i`LJ9^U4S/hxP%,Nwjy%70rredacted;Q(;0+F51
     P11HYsv  C2023 08 19HSlNW+22sfu;wkC*?@^c@c!*[,2PrxodL'o89B$5]v2N@pG:T14qF51
     P11HYsv 3C2023 08 20f,r+\i#Z8g`?6y32WHoT4CN_DB9U11uO=H47k4O2uIN\4+*)9rgWT14
     P11HYsv 3C2023 08 20KdKZu\V$S$m-o^BDKqclickmMEObP3ED`Le=QOB1$XA)2EPs:4;9T14
     P11HYsv 3C2023 08 20_f`g1j)WN`=hereTK5+UWqY688lu,[kytW`aC*j_asy%M$n3YK*mT14
     P11HYsv 3C2023 08 20;v/=hV9u7^Ne;hM8rqwZjP9Ufor-+h25[N1kkexplanationG^O8T14

Station data:
(F51) Pan-STARRS 1, Haleakala  (N20.707234 W156.255910)  US/Hawaii.
   Observers J. Bulger, T. Lowe, A. Schultz, M. Willman. Measurers K.
   Chambers, S. Chastel, T. de Boer, L. Denneau, J. Fairlamb, H. Flewelling,
   M. Huber, C.-C. Lin, E. Magnier, Y. Ramanjooloo, R. Wainscoat, R. Weryk.
   1.8-m Ritchey-Chrétien + CCD.
(T14) Mauna Kea-UH/Tholen NEO Follow-Up (CFHT)  (N19.825252 W155.468876)
   US/Hawaii.  Observer R. Weryk. 3.6-m Canada-France-Hawaii Telescope.

Orbital elements:  P11HYsv
   Perihelion 2023 Jul 8.86072 +/- 37.7 TT = 20:39:26 (JD 2460134.36072)
Epoch 2023 Aug 20.0 TT = JDT 2460176.5   Earth MOID: 0.4062      AutoNEOCP
M  11.45520271 +/- 11               (J2000 ecliptic)
n   0.27184146 +/- 0.144            Peri.  119.20750 +/- 38
a   2.36007379 +/- 0.831            Node   171.80369 +/- 8
e   0.4260499 +/- 0.162             Incl.   13.68865 +/- 4.1
P   3.63                   H 22.98  G  0.15   U 11.4  SR
q 1.35456441 +/- 0.146    Q 3.36558316 +/- 2.6
From 7 observations 2023 Aug. 19-20 (23.6 hr); mean residual 0".07
Residuals in arcseconds: 
230819 F51  .05-  .09+    230820 T14  .02+  .05+    230820 T14  .01+  .02+    
230819 F51  .12+  .16-    230820 T14  .00   .01-    
230819 F51  .07-  .07+    230820 T14  .03-  .05-    

Ephemerides (geocentric):
Date (UTC) HH   RA             Dec           delta  r     elong  mag " sig PA
---- --------  ------------   ------------  ------ ------ -----  --- --------
2023 09 25 01  21 16 45.431   -11 28 20.65  .64933 1.5403 136.5 24.2 266'  35
2023 09 25 02  21 16 49.282   -11 29 00.47  .64970 1.5405 136.5 24.2 267'  35
2023 09 25 03  21 16 53.134   -11 29 40.24  .65006 1.5407 136.4 24.2 267'  35
2023 09 25 04  21 16 56.987   -11 30 19.93  .65043 1.5409 136.4 24.2 268'  35
2023 09 25 05  21 17 00.842   -11 30 59.56  .65080 1.5410 136.4 24.2 268'  35
2023 09 25 06  21 17 04.697   -11 31 39.12  .65117 1.5412 136.4 24.2 268'  35
2023 09 25 07  21 17 08.555   -11 32 18.61  .65154 1.5414 136.3 24.2 269'  35
2023 09 25 08  21 17 12.413   -11 32 58.04  .65191 1.5416 136.3 24.2 269'  35
2023 09 25 09  21 17 16.273   -11 33 37.40  .65228 1.5418 136.3 24.2 270'  35
2023 09 25 10  21 17 20.134   -11 34 16.69  .65265 1.5419 136.2 24.2 270'  35
2023 09 25 11  21 17 23.996   -11 34 55.92  .65302 1.5421 136.2 24.2 271'  35
2023 09 25 12  21 17 27.860   -11 35 35.08  .65339 1.5423 136.2 24.2 271'  35
2023 09 25 13  21 17 31.724   -11 36 14.17  .65376 1.5425 136.2 24.2 271'  35
2023 09 25 14  21 17 35.591   -11 36 53.20  .65413 1.5426 136.1 24.2 272'  35
2023 09 25 15  21 17 39.458   -11 37 32.16  .65451 1.5428 136.1 24.2 272'  35
2023 09 25 16  21 17 43.327   -11 38 11.05  .65488 1.5430 136.1 24.2 273'  35
2023 09 25 17  21 17 47.197   -11 38 49.88  .65525 1.5432 136.0 24.2 273'  35
2023 09 25 18  21 17 51.068   -11 39 28.64  .65562 1.5433 136.0 24.2 273'  35
2023 09 25 19  21 17 54.940   -11 40 07.33  .65599 1.5435 136.0 24.2 274'  35
2023 09 25 20  21 17 58.814   -11 40 45.96  .65637 1.5437 136.0 24.2 274'  35
2023 09 25 21  21 18 02.689   -11 41 24.52  .65674 1.5439 135.9 24.2 275'  35
2023 09 25 22  21 18 06.565   -11 42 03.01  .65711 1.5441 135.9 24.2 275'  35
2023 09 25 23  21 18 10.443   -11 42 41.44  .65749 1.5442 135.9 24.2 276'  35
2023 09 26 00  21 18 14.321   -11 43 19.81  .65786 1.5444 135.9 24.2 276'  35
2023 09 26 01  21 18 18.201   -11 43 58.10  .65823 1.5446 135.8 24.2 276'  35
2023 09 26 02  21 18 22.083   -11 44 36.33  .65861 1.5448 135.8 24.2 277'  35
2023 09 26 03  21 18 25.965   -11 45 14.49  .65898 1.5449 135.8 24.2 277'  35
2023 09 26 04  21 18 29.849   -11 45 52.59  .65936 1.5451 135.7 24.2 278'  35
2023 09 26 05  21 18 33.734   -11 46 30.62  .65973 1.5453 135.7 24.2 278'  35
2023 09 26 06  21 18 37.620   -11 47 08.59  .66011 1.5455 135.7 24.2 278'  35
2023 09 26 07  21 18 41.508   -11 47 46.49  .66048 1.5457 135.7 24.2 279'  35
2023 09 26 08  21 18 45.396   -11 48 24.32  .66086 1.5458 135.6 24.2 279'  35
2023 09 26 09  21 18 49.286   -11 49 02.09  .66123 1.5460 135.6 24.2 280'  35
2023 09 26 10  21 18 53.177   -11 49 39.79  .66161 1.5462 135.6 24.2 280'  35
2023 09 26 11  21 18 57.070   -11 50 17.43  .66199 1.5464 135.5 24.2 280'  35
2023 09 26 12  21 19 00.963   -11 50 55.00  .66236 1.5465 135.5 24.2 281'  35
2023 09 26 13  21 19 04.858   -11 51 32.50  .66274 1.5467 135.5 24.2 281'  35
2023 09 26 14  21 19 08.754   -11 52 09.94  .66312 1.5469 135.5 24.2 282'  36
2023 09 26 15  21 19 12.651   -11 52 47.31  .66349 1.5471 135.4 24.2 282'  36
2023 09 26 16  21 19 16.550   -11 53 24.62  .66387 1.5473 135.4 24.2 282'  36
2023 09 26 17  21 19 20.449   -11 54 01.86  .66425 1.5474 135.4 24.2 283'  36
2023 09 26 18  21 19 24.350   -11 54 39.04  .66463 1.5476 135.4 24.3 283'  36
2023 09 26 19  21 19 28.252   -11 55 16.15  .66501 1.5478 135.3 24.3 284'  36
2023 09 26 20  21 19 32.156   -11 55 53.19  .66538 1.5480 135.3 24.3 284'  36
2023 09 26 21  21 19 36.060   -11 56 30.17  .66576 1.5482 135.3 24.3 285'  36
2023 09 26 22  21 19 39.966   -11 57 07.08  .66614 1.5483 135.2 24.3 285'  36
2023 09 26 23  21 19 43.873   -11 57 43.93  .66652 1.5485 135.2 24.3 285'  36
2023 09 27 00  21 19 47.781   -11 58 20.72  .66690 1.5487 135.2 24.3 286'  36